Flag for U.S.A. Weather past 2 weeks in Madison, Wisconsin, U.S.A.

Now
57 °F

Passing clouds.


Feels Like: 57 °F
Forecast: 45 / 57 °F
Wind: 3 mph from Southwest

Location: Dane County Regional-Truax Field

Current Time: Sep 14, 2014 at 11:42:38 PM

Latest Report: Sep 14, 2014 at 10:53 PM


Visibility: 10 mi

Pressure: 30.15 "Hg

Humidity: 69%

Dew point: 47 °F

Location of MadisonLocation

Historic Weather in Madison — Graph

°F

Madison temperature yesterday

Maximum temperature yesterday: 57 °F (at 2:53 PM)
Minimum temperature yesterday: 39 °F (at 6:53 AM)
Average temperature yesterday: 47 °F

Past Weeks' High & Low Weather Summary

 TemperatureHumidityPressure
High84 °F (Aug 31, 2:53 PM)97% (Aug 31, 1:00 AM)30.41 "Hg (Aug 31, 1:00 AM)
Low38 °F (Sep 12, 11:53 PM)31% (Sep 7, 2:53 PM)29.48 "Hg (Sep 10, 9:53 AM)
Average64 °F74%30.02 "Hg
* Reported Aug 30 9:53 PM — Sep 14 9:53 PM, Madison, Weather by CustomWeather, © 2014

Note: Actual official high and low records may vary slightly from our data, if they occured in-between our weather recording intervals... More about our weather records

Advertising

Madison weather history for previous 24 hours

 ConditionsComfort  
Time TempWeatherWind HumidityBarometerVisibility
9:53 PM
Sep 14
59 °FPassing clouds.5 mph64%30.15 "Hg10 mi
8:53 PM60 °FPassing clouds.7 mph62%30.14 "Hg10 mi
7:53 PM61 °FScattered clouds.5 mph58%30.14 "Hg10 mi
6:53 PM63 °FScattered clouds.7 mph54%30.14 "Hg10 mi
5:53 PM65 °FScattered clouds.7 mph51%30.14 "Hg10 mi
4:53 PM65 °FPassing clouds.8 mph49%30.15 "Hg10 mi
3:53 PM66 °FScattered clouds.10 mph47%30.15 "Hg10 mi
2:53 PM65 °FPassing clouds.9 mph47%30.17 "Hg10 mi
1:53 PM64 °FScattered clouds.9 mph49%30.19 "Hg10 mi
12:53 PM62 °FPassing clouds.10 mph50%30.22 "Hg10 mi
11:53 AM60 °FPassing clouds.13 mph53%30.24 "Hg10 mi
10:53 AM57 °FPassing clouds.10 mph55%30.27 "Hg10 mi
9:53 AM54 °FPartly sunny.7 mph62%30.29 "Hg10 mi
8:53 AM52 °FPartly sunny.6 mph64%30.29 "Hg10 mi
7:53 AM49 °FPassing clouds.9 mph74%30.28 "Hg10 mi
6:53 AM46 °FPassing clouds.5 mph83%30.29 "Hg10 mi
5:53 AM47 °FPassing clouds.6 mph80%30.29 "Hg10 mi
4:53 AM45 °FOvercast.No wind86%30.29 "Hg10 mi
3:53 AM41 °FPassing clouds.No wind89%30.30 "Hg10 mi
2:53 AM43 °FPassing clouds.No wind89%30.31 "Hg10 mi
1:53 AM40 °FPassing clouds.N/A93%30.32 "Hg10 mi
12:53 AM41 °FClear.No wind89%30.32 "Hg10 mi
11:53 PM
Sep 13
40 °FPassing clouds.No wind93%30.32 "Hg10 mi
Weather by CustomWeather, © 2014

See weather overviewHow to use our weather pages